Location: Landudec
(47.9998°N, 4.3364°W)
Time: 20:28:04
(UTC+00:00)

Daily predictions for brighter satellites

Satellite Brightness Start Highest point End
(mag) Time Altitude Azimuth Time Altitude Azimuth Time Altitude Azimuth
Meteor 2-10 Rocket 3.6 20:47:15 10° NNW 20:52:24 90° WSW 20:57:41 10° S
Cosmos 1125 Rocket 4.4 20:49:44 10° NNW 20:54:46 48° WSW 20:59:49 10° S
Cosmos 1844 Rocket 2.7 20:49:39 10° NNW 20:55:16 80° ENE 21:00:50 10° SSE
Nadezhda 1 Rocket 4.1 20:50:42 10° N 20:57:10 87° E 21:03:34 10° S
Cosmos 1709 Rocket 4.5 20:51:31 10° SSE 20:57:26 45° E 21:03:27 10° NNE
USA 267 4.2 20:53:14 10° E 20:59:27 47° NNE 21:05:40 10° NW
CZ-2C R/B 4.4 20:54:54 10° N 20:59:39 65° WNW 21:04:22 10° SSW
SPOT 1/Viking Rocket 3.9 21:01:25 10° SE 21:06:25 55° ENE 21:11:29 10° N
Cosmos-2242 3.1 21:02:38 10° N 21:06:59 65° ENE 21:11:19 10° SSE
Cosmos 1400 Rocket 2.8 21:03:41 10° N 21:07:40 66° ENE 21:11:34 10° SSE
Cosmos 2221 4.3 21:08:34 10° NNE 21:11:43 19° ENE 21:14:51 10° ESE
Lacrosse 5 rocket 3.7 21:08:55 10° WNW 21:12:31 26° NNW 21:15:58 10° NE
Resurs 01 Rocket 2.5 21:11:29 10° S 21:15:44 47° W 21:20:01 10° NNW
SAR-Lupe-2 4.2 21:15:52 10° NNE 21:19:15 38° E 21:22:37 10° SSE
Terra 2.9 21:15:04 10° SE 21:19:15 32° ENE 21:23:28 10° N
Cosmos 2322 Rocket 3.7 21:24:29 10° WSW 21:29:46 41° NW 21:35:06 10° NNE
Cosmos 1455 3.5 21:26:55 10° NNW 21:30:31 40° W 21:34:08 10° SSW
Alouette 2 Rocket 3.7 21:27:35 10° NNW 21:31:26 79° WSW 21:36:39 10° S
Cosmos 1758 Rocket 4.0 21:27:42 10° SSW 21:32:11 68° W 21:36:41 10° N
Cosmos 1328 4.0 21:31:56 10° SSW 21:35:53 73° W 21:39:53 10° N
USA 245 3.7 21:32:41 10° S 21:36:01 60° W 21:40:16 10° NNW
SL-24 R/B - RUBIN 2 4.5 21:31:50 10° SSW 21:37:54 82° SE 21:44:35 10° NE
NOSS 3-3 (A) 4.1 21:32:34 10° SSW 21:38:12 52° ESE 21:44:32 10° NE
NOSS 3-3 (C) 4.1 21:32:41 10° SSW 21:38:19 52° ESE 21:44:39 10° NE
Cosmos 1538 Rocket 4.1 21:40:38 10° S 21:45:53 59° ESE 21:51:08 10° NNE
Cosmos 1703 4.2 21:42:53 10° SSW 21:46:38 47° WNW 21:50:25 10° N
COSMOS 2428 2.7 21:46:51 10° SSW 21:52:26 64° ESE 21:58:04 10° NNE
Cosmos 1844 4.4 21:47:13 10° NW 21:52:44 48° WSW 21:57:55 11° S
Cosmos 2084 3.5 21:48:19 10° NW 21:52:50 87° SW 21:56:03 18° SE
Cosmos 2322 3.9 21:49:27 10° SSW 21:55:11 79° WNW 22:00:57 10° NNE
Cosmos 1953 Rocket 3.8 21:51:09 10° SSW 21:55:28 70° WNW 21:59:48 10° N
ATLAS 2AS CENTAUR R/B 3.5 21:48:18 10° NW 21:55:48 51° NE 22:02:39 10° ESE
Cosmos 2181 Rocket 4.1 21:49:56 10° N 21:56:21 87° W 22:02:01 13° S
ATLAS CENTAUR R/B 1.1 21:54:58 10° NW 21:58:40 74° SW 22:00:56 21° SSE
Cosmos 773 Rocket 4.3 21:54:08 10° SSW 21:59:25 74° WNW 22:04:45 10° NNE
Cosmos 2074 Rocket 4.3 21:54:31 14° SSE 21:59:41 52° E 22:05:42 10° NNE
Cosmos 1869 3.7 21:56:13 10° N 22:00:06 49° ENE 22:02:34 21° SE
BREEZE-M DEB (TANK) 2.5 21:53:41 10° W 22:00:15 70° N 22:03:00 10° E
ERS-1 Rocket 3.1 21:56:48 14° S 22:01:11 73° WSW 22:06:15 10° NNW
Cosmos 2237 Rocket 3.0 21:59:40 17° SSE 22:03:16 32° ESE 22:08:17 10° NE
Cosmos 1842 Rocket 3.6 21:59:20 10° N 22:03:40 68° ENE 22:06:35 20° SSE
Cosmos 2219 Rocket 2.1 21:58:23 10° SSW 22:03:58 85° ESE 22:09:38 10° NNE
Meteor 1-27 4.3 22:00:04 10° NNW 22:05:48 81° W 22:10:37 15° S
SPOT 5 3.0 22:02:26 15° S 22:06:34 75° WSW 22:11:22 10° NNW
Cosmos 2360 Rocket 3.7 22:01:40 10° WSW 22:06:57 40° NW 22:12:17 10° NNE
USA 215 3.2 22:02:37 10° ENE 22:09:07 62° SE 22:15:35 10° SW
Cosmos 2344 4.3 22:05:02 15° SSE 22:10:09 31° ESE 22:16:45 10° NE
Gblst 52 Del rocket 4.3 22:06:36 10° WNW 22:12:17 73° SSW 22:17:16 17° SE
Atlas Centaur 2 4.1 22:13:22 10° SW 22:16:36 14° S 22:17:13 14° S
Cosmos 2333 Rocket 2.5 22:12:30 10° SW 22:18:11 73° WNW 22:23:56 10° NNE
GEOS 3 Rocket 4.0 22:13:45 10° NE 22:19:08 70° NW 22:24:30 10° SW
Cosmos 1315 Rocket 3.5 22:18:38 10° NNW 22:22:37 50° W 22:25:29 18° SSW
Cosmos 1892 2.8 22:26:26 28° SSE 22:28:09 54° E 22:31:52 10° NNE
NOSS 0 Rocket 3.9 22:22:19 11° SSW 22:28:12 64° ESE 22:34:18 10° NE
Cosmos 2056 Rocket 4.3 22:23:42 10° NNW 22:28:52 43° ENE 22:32:26 19° ESE
Meteor 2-2 Rocket 4.3 22:26:12 10° NNW 22:32:03 84° W 22:35:55 22° S
BREEZE-M DEB 4.3 22:28:11 10° WNW 22:32:11 69° SSW 22:47:52 10° ESE
MTI 3.5 22:30:38 10° NNE 22:33:44 79° ESE 22:34:54 35° S
ATLAS 5 CENTAUR R/B 3.7 22:32:01 10° W 22:35:51 30° NNW 22:40:11 10° NNE
Cosmos 2278 Rocket 2.2 22:31:32 10° NNW 22:37:13 78° WSW 22:40:40 25° SSE
Cosmos 1408 3.0 22:37:57 33° SE 22:38:59 43° E 22:42:23 10° NNE
Cosmos 1943 Rocket 4.0 22:35:35 10° N 22:40:06 23° NE 22:44:35 10° E
Cosmos 44 4.3 22:40:50 21° ESE 22:40:58 22° ESE 22:44:19 10° ENE
USA 267 3.3 22:36:39 16° ESE 22:42:08 89° NE 22:48:45 10° NW
Cosmos 1680 Rocket 3.6 22:39:45 22° S 22:43:12 63° ESE 22:48:29 10° NNE
SL-16 R/B 3.3 22:46:35 23° SE 22:48:26 28° ESE 22:53:11 10° NE
Cosmos 2221 3.2 22:45:21 10° NNW 22:49:35 48° W 22:52:05 22° SSW
CREW DRAGON DEMO-1 DEB 4.3 22:53:16 25° E 22:53:16 25° E 22:54:48 10° ENE
Lacrosse 5 rocket 3.5 22:49:14 10° NW 22:52:41 25° N 22:55:58 10° ENE
Terra 3.0 22:53:50 17° SSW 22:56:56 35° W 23:01:18 10° NNW
Cosmos 2184 Rocket 4.4 22:53:36 14° SSW 22:59:01 63° WNW 23:05:19 10° N
In-Cosmos 22 Rocket 4.2 22:56:03 19° SSW 22:59:56 71° WNW 23:05:16 10° N
Cosmos 923 Rocket 4.2 22:56:41 14° SSW 23:01:09 75° WNW 23:06:29 10° NNE
Cosmos 1766 Rocket 4.5 23:01:32 28° SE 23:02:50 34° E 23:06:49 10° NNE
Cosmos 2058 3.4 23:03:48 23° SSW 23:06:12 57° WNW 23:10:17 10° N
Okean 3 Rocket 4.1 23:07:34 33° SE 23:09:01 45° E 23:13:16 10° NNE
TIMED 4.4 23:13:40 36° S 23:15:21 71° ESE 23:19:44 10° NNE
Cosmos 1825 2.0 23:14:44 45° S 23:15:50 81° E 23:19:39 10° NNE
Cosmos 1340 3.9 23:15:33 25° ESE 23:16:00 26° E 23:19:10 10° NE
NOSS 3-4 (A) 3.9 23:12:10 10° NW 23:19:05 67° SW 23:23:28 27° SSE
Cosmos 1624 Rocket 4.0 23:13:55 10° NNW 23:19:11 79° WSW 23:21:30 34° SSE
NOSS 3-4 (C) 3.9 23:12:16 10° NW 23:19:12 67° SW 23:23:36 27° SSE
Aureole 2 Rocket 1.9 23:17:52 10° NNW 23:20:42 70° ENE 23:20:49 68° E
Cosmos 2218 Rocket 4.5 23:17:43 27° SSE 23:20:50 49° E 23:26:51 10° NNE
Cosmos 2366 rocket 4.4 23:21:57 28° SSE 23:25:02 50° E 23:31:08 10° NNE
BREEZE-M DEB (TANK) 3.8 23:23:34 10° WNW 23:27:09 21° SW 23:27:09 21° SW
Cosmos 2369 Rocket 3.5 23:23:45 10° NNW 23:28:49 33° NE 23:33:18 13° ESE
Cosmos 1980 4.2 23:23:35 10° SW 23:29:03 58° WNW 23:34:40 10° NNE
SL-4 R/B 3.1 23:33:31 17° NE 23:33:31 17° NE 23:34:25 10° NNE
Cosmos 2151 3.0 23:32:17 37° SSW 23:33:54 76° W 23:38:11 10° N
Cosmos 1933 3.5 23:30:28 10° N 23:34:28 62° ENE 23:35:34 43° SE
EO 1 Delta rocket 4.4 23:30:28 10° N 23:35:33 73° WNW 23:39:14 25° SSW
Helios 1A 3.9 23:34:08 27° ESE 23:35:44 38° ENE 23:39:35 10° N
COSMOS 2455 3.3 23:31:37 10° NNW 23:37:36 58° NE 23:41:47 20° SE
Genesis I 3.8 23:35:47 17° WSW 23:38:36 54° NW 23:42:26 10° NNE
Thor Agena Rocket 3.8 23:34:04 10° N 23:39:09 65° WNW 23:42:04 25° SW
DELTA 2 R/B (1) 4.1 23:36:59 10° WSW 23:42:01 35° S 23:42:01 35° S
Cosmos 2341 Rocket 4.0 23:40:08 27° SSW 23:43:42 77° W 23:49:57 10° N
ATLAS 2AS CENTAUR R/B 3.2 23:39:39 10° NW 23:46:50 50° WSW 23:50:04 30° S
Cosmos 2237 Rocket 3.1 23:41:41 10° SW 23:47:10 47° NW 23:52:42 10° NNE
Cosmos 1151 Rocket 2.9 23:46:59 10° NNW 23:51:20 81° W 23:52:34 46° S
Cosmos 1782 3.6 23:48:12 10° N 23:51:59 41° ENE 23:53:04 33° ESE
USA 215 3.9 23:45:43 10° NE 23:52:08 59° NNW 23:58:32 10° W
Cosmos 1408 Rocket 3.6 23:52:07 45° SSE 23:53:20 67° E 23:57:44 10° NNE
